TimeCDT,TemperatureF,Dew PointF,Humidity,Sea Level PressureIn,VisibilityMPH,Wind Direction,Wind SpeedMPH,Gust SpeedMPH,PrecipitationIn,Events,Conditions,WindDirDegrees,DateUTC
12:15 AM,64.4,57.2,77,30.15,10.0,East,10.4,-,N/A,,Scattered Clouds,100,2013-10-14 05:15:00
12:35 AM,64.4,57.2,77,30.15,10.0,ESE,11.5,-,N/A,,Scattered Clouds,110,2013-10-14 05:35:00
12:55 AM,64.4,57.2,77,30.14,10.0,ESE,8.1,-,N/A,,Mostly Cloudy,110,2013-10-14 05:55:00
1:15 AM,62.6,59.0,88,30.14,10.0,SE,4.6,-,N/A,,Scattered Clouds,140,2013-10-14 06:15:00
1:35 AM,62.6,59.0,88,30.14,10.0,SSE,3.5,-,N/A,,Mostly Cloudy,150,2013-10-14 06:35:00
1:55 AM,62.6,59.0,88,30.14,10.0,SE,6.9,-,N/A,,Mostly Cloudy,130,2013-10-14 06:55:00
2:15 AM,64.4,60.8,88,30.13,10.0,SE,9.2,-,N/A,,Mostly Cloudy,130,2013-10-14 07:15:00
2:35 AM,64.4,60.8,88,30.12,10.0,SE,8.1,-,N/A,,Scattered Clouds,130,2013-10-14 07:35:00
2:55 AM,64.4,60.8,88,30.12,10.0,SE,8.1,-,N/A,,Mostly Cloudy,140,2013-10-14 07:55:00
3:15 AM,64.4,60.8,88,30.12,10.0,SE,6.9,-,N/A,,Scattered Clouds,130,2013-10-14 08:15:00
3:35 AM,64.4,60.8,88,30.11,10.0,SE,8.1,-,N/A,,Clear,130,2013-10-14 08:35:00
3:55 AM,64.4,60.8,88,30.10,10.0,SE,8.1,-,N/A,,Scattered Clouds,130,2013-10-14 08:55:00
4:15 AM,62.6,60.8,94,30.09,10.0,SE,9.2,-,N/A,,Clear,130,2013-10-14 09:15:00
4:35 AM,62.6,60.8,94,30.09,10.0,SE,9.2,-,N/A,,Clear,130,2013-10-14 09:35:00
4:55 AM,62.6,60.8,94,30.09,10.0,SE,8.1,-,N/A,,Mostly Cloudy,140,2013-10-14 09:55:00
5:15 AM,64.4,62.6,94,30.08,10.0,SE,9.2,-,N/A,,Overcast,140,2013-10-14 10:15:00
5:35 AM,64.4,62.6,94,30.09,7.0,SE,8.1,-,N/A,,Overcast,140,2013-10-14 10:35:00
5:55 AM,64.4,62.6,94,30.09,7.0,SE,8.1,-,N/A,,Overcast,140,2013-10-14 10:55:00
6:15 AM,66.2,64.4,94,30.07,7.0,SE,15.0,-,N/A,,Overcast,130,2013-10-14 11:15:00
7:50 AM,66.2,64.4,94,30.06,5.0,SE,12.7,21.9,N/A,,Overcast,130,2013-10-14 12:50:00
9:45 AM,64.4,64.4,100,30.05,3.0,SE,17.3,23.0,N/A,Rain,Light Rain,130,2013-10-14 14:45:00
10:50 AM,64.4,64.4,100,30.02,5.0,SE,19.6,28.8,N/A,,Overcast,130,2013-10-14 15:50:00
11:50 AM,64.4,62.6,94,29.99,5.0,SE,24.2,32.2,N/A,Rain,Light Rain,130,2013-10-14 16:50:00
12:50 PM,64.4,64.4,100,29.96,3.0,SE,23.0,32.2,N/A,Rain,Light Rain,130,2013-10-14 17:50:00
1:50 PM,64.4,64.4,100,29.93,7.0,SE,23.0,29.9,N/A,,Overcast,130,2013-10-14 18:50:00
2:55 PM,66.2,64.4,94,29.89,7.0,SE,20.7,27.6,N/A,,Overcast,140,2013-10-14 19:55:00
3:50 PM,66.2,64.4,94,29.88,7.0,SSE,16.1,23.0,N/A,,Overcast,150,2013-10-14 20:50:00
4:50 PM,66.2,64.4,94,29.86,10.0,SSE,15.0,19.6,N/A,,Overcast,150,2013-10-14 21:50:00
5:50 PM,66.2,64.4,94,29.85,10.0,SSE,17.3,-,N/A,,Overcast,150,2013-10-14 22:50:00
6:50 PM,66.2,66.2,100,29.84,10.0,SE,18.4,-,N/A,,Overcast,130,2013-10-14 23:50:00
7:50 PM,66.2,66.2,100,29.85,10.0,SE,16.1,-,N/A,,Overcast,140,2013-10-15 00:50:00
8:50 PM,68.0,66.2,94,29.86,10.0,SSE,11.5,-,N/A,,Overcast,150,2013-10-15 01:50:00
9:15 PM,68.0,66.2,94,29.86,10.0,SSE,13.8,-,N/A,,Overcast,160,2013-10-15 02:15:00
9:35 PM,68.0,66.2,94,29.86,10.0,SSE,13.8,-,N/A,,Overcast,160,2013-10-15 02:35:00
9:55 PM,68.0,68.0,100,29.87,10.0,SSE,11.5,-,N/A,,Overcast,160,2013-10-15 02:55:00
10:15 PM,68.0,68.0,100,29.87,10.0,South,11.5,-,N/A,,Overcast,170,2013-10-15 03:15:00
10:35 PM,68.0,68.0,100,29.87,10.0,SSE,9.2,-,N/A,,Overcast,160,2013-10-15 03:35:00
10:55 PM,68.0,68.0,100,29.86,7.0,SSE,9.2,-,N/A,,Overcast,160,2013-10-15 03:55:00
11:15 PM,68.0,68.0,100,29.85,7.0,SSE,9.2,-,N/A,,Overcast,160,2013-10-15 04:15:00
11:35 PM,68.0,68.0,100,29.86,7.0,South,8.1,-,N/A,,Overcast,170,2013-10-15 04:35:00
11:55 PM,68.0,68.0,100,29.86,7.0,South,9.2,-,N/A,,Overcast,170,2013-10-15 04:55:00